Probability
0 0 0 0 0 0 0 0 0 0 0 0 0 2 4 3 2 4 9 17 25 30 32 34 34 34 36 41 44 43 38 32 25 20 17 16 16 17 19 22 23 21 15 12
0 0 0 0 0 0 0 0 0 0 0 0 1 4 5 3 2 4 8 14 22 30 36 41 41 40 41 44 48 47 43 37 30 24 21 20 20 19 19 21 23 22 17 14
0 0 0 0 0 0 0 0 0 0 0 0 1 4 5 3 2 4 6 11 19 28 37 45 48 46 44 47 51 51 50 45 38 32 28 26 26 23 21 22 25 25 22 19
0 0 0 0 0 0 0 0 0 0 0 0 0 2 4 3 2 3 6 10 17 25 33 41 48 49 46 47 51 54 55 53 47 38 33 31 31 26 22 23 27 29 27 24
0 0 0 0 0 0 0 0 0 0 0 0 0 1 4 5 5 4 7 11 14 20 27 35 46 50 47 46 50 55 58 58 53 44 38 35 33 28 24 25 28 30 29 26
0 0 0 0 0 0 0 0 0 0 0 0 0 1 5 7 7 5 6 9 11 14 20 30 41 48 46 44 48 55 61 61 57 49 44 41 38 33 29 29 31 31 28 26
0 0 0 0 0 0 0 0 0 0 0 0 0 1 5 7 6 5 6 9 11 12 19 27 37 43 44 45 51 59 64 64 60 55 49 47 44 38 34 33 33 30 26 24
0 0 0 0 0 0 0 0 0 0 0 0 0 2 4 6 6 4 6 9 11 15 23 30 35 39 43 48 54 60 65 66 62 57 53 50 47 41 35 33 31 28 24 22
0 0 0 0 0 0 0 0 0 0 0 0 1 3 4 4 5 5 7 10 13 18 27 33 36 39 45 51 54 57 62 64 61 56 52 51 49 43 37 35 31 25 21 19
0 0 0 0 0 0 0 0 0 0 0 0 1 3 3 3 6 8 10 14 17 20 27 33 36 41 48 53 53 52 56 58 57 54 50 47 45 42 39 37 29 22 20 21
0 0 0 0 0 0 0 0 0 0 0 0 1 2 2 3 6 11 14 18 21 24 28 33 37 41 46 51 52 51 53 54 53 51 47 43 41 39 38 34 26 21 22 24
0 0 0 0 0 0 0 0 0 0 0 0 1 2 2 3 8 14 19 23 27 29 32 38 44 46 47 51 53 53 53 52 51 48 45 42 39 36 33 30 26 25 24 25
0 0 0 0 0 0 0 0 0 0 0 0 1 3 3 4 12 21 27 30 32 34 39 47 54 55 54 55 57 55 51 49 48 46 43 40 37 34 30 28 27 28 28 28
0 0 0 0 0 0 0 0 0 0 0 0 2 4 6 10 19 28 33 34 35 39 47 55 61 63 61 62 61 56 50 46 45 43 41 38 36 32 29 28 28 29 31 33
0 0 0 0 0 0 0 0 0 0 0 1 3 5 10 17 25 31 35 36 38 44 54 61 66 67 65 64 62 57 50 46 43 42 39 38 35 31 30 30 31 32 34 35
1 0 0 0 0 0 0 0 0 0 0 1 4 7 14 22 28 33 36 37 40 45 55 64 70 70 66 63 61 58 52 46 42 39 37 36 35 33 32 32 33 34 33 32
6 5 3 1 0 0 0 0 0 0 1 3 5 10 16 23 29 34 36 37 40 45 55 65 71 70 65 62 61 59 53 45 39 36 35 35 35 35 35 34 34 33 30 28
11 12 7 2 1 0 0 0 0 1 3 6 8 12 17 23 29 35 37 39 41 47 54 63 69 68 63 62 60 58 51 43 37 35 35 35 35 37 37 35 34 32 28 27
10 11 7 3 2 1 0 0 1 3 6 9 13 16 19 24 30 36 42 46 49 52 56 61 65 64 62 61 58 52 46 40 35 34 34 34 34 34 34 33 31 29 27 27
5 7 5 3 3 1 0 0 1 4 11 16 19 24 28 31 37 46 53 57 60 61 61 63 63 62 61 59 55 49 43 36 32 31 31 31 30 28 28 28 27 25 24 23
2 3 2 1 2 1 2 1 5 16 27 29 29 34 40 45 52 59 64 66 68 69 67 65 64 63 62 58 54 49 43 36 31 29 30 29 26 24 24 24 23 21 19 18
1 1 1 2 6 11 16 18 25 41 50 46 41 44 51 57 63 68 71 72 71 71 68 67 66 64 61 57 53 48 42 37 33 31 30 27 23 22 22 21 19 17 15 13
3 4 7 12 21 29 37 44 51 57 60 55 50 51 54 58 64 69 70 70 69 67 66 65 64 62 60 56 50 45 40 38 35 32 28 23 21 19 18 16 14 13 11 9
11 13 19 28 37 42 46 53 58 59 57 54 51 51 51 55 63 67 65 63 62 61 61 62 61 59 57 53 47 42 38 36 34 29 24 21 18 14 12 10 8 7 6 5
21 23 29 39 48 48 46 46 52 55 54 51 48 47 50 57 64 65 61 58 56 54 53 56 56 55 53 48 43 38 34 32 29 25 21 18 14 9 6 4 3 2 2 2
27 30 33 42 53 54 48 43 48 52 52 50 47 45 50 59 65 65 61 58 54 49 48 51 53 52 49 45 40 34 31 29 26 23 19 15 11 7 4 3 1 0 0 0
Wind_Speed
12 12 12 11 13 13 10 8 6 6 7 7 8 9 11 10 10 12 12 13 12 12 13 12 12 11 10 9 8 7 7 6 4 3 3 3 2 2 2 3 4 3 3 2
12 15 15 12 11 11 10 9 6 4 5 5 6 8 8 10 9 11 12 13 13 13 12 12 11 11 10 9 9 8 7 7 6 4 3 2 2 1 2 1 3 4 3 3
17 13 14 13 11 10 11 10 8 5 5 6 6 6 7 7 7 9 11 12 13 13 13 13 12 11 11 11 10 9 7 7 7 5 4 3 2 1 1 1 2 3 3 3
16 15 11 12 13 12 10 9 8 7 7 6 9 6 7 10 8 10 10 11 12 13 13 13 13 11 11 11 10 8 8 7 6 5 5 5 4 3 2 2 2 2 2 2
14 14 13 13 13 12 10 7 7 9 9 10 9 6 6 9 10 12 11 12 12 13 14 14 14 12 11 11 10 9 8 7 6 6 5 4 3 3 2 1 2 2 2 2
15 13 13 13 13 12 10 9 10 11 10 12 10 7 6 8 9 10 12 12 12 13 13 13 13 12 11 11 10 10 9 7 7 6 5 4 4 3 2 2 2 2 1 2
16 15 14 13 14 14 12 10 8 9 9 9 9 8 5 8 8 9 10 11 11 11 12 12 12 12 10 10 9 9 9 8 7 6 5 4 3 2 2 2 2 2 1 1
16 15 15 14 15 13 14 15 11 8 8 8 10 8 5 7 7 7 7 9 10 11 10 11 12 11 10 10 9 9 8 7 7 6 5 4 3 3 2 2 2 1 1 1
12 14 15 14 14 15 15 15 15 12 12 8 7 6 7 8 8 9 8 8 8 9 10 10 11 11 11 10 9 9 8 7 6 5 5 4 3 2 2 1 1 0 1 1
12 11 15 15 13 16 16 14 11 11 10 10 8 9 7 9 9 9 8 8 8 8 9 10 9 10 9 9 9 8 8 7 6 5 4 4 3 3 1 1 1 0 1 1
16 12 12 15 16 17 17 17 13 9 10 11 7 4 6 8 8 9 8 8 8 8 8 9 9 9 9 9 9 8 8 7 6 5 4 3 4 3 3 2 1 0 0 1
14 11 11 14 14 16 16 16 14 10 9 9 8 2 4 7 7 8 8 8 8 8 8 8 10 10 9 9 8 8 7 7 6 5 5 4 4 4 3 2 1 1 1 1
11 10 11 12 14 16 16 16 16 13 9 10 11 5 5 6 7 8 9 9 8 7 8 9 9 9 8 8 7 7 7 7 7 6 6 5 4 4 3 3 3 2 2 2
7 10 13 13 11 13 15 17 16 15 11 11 12 7 8 8 8 9 10 9 8 8 8 9 8 8 8 8 7 8 7 7 7 6 6 5 5 4 4 4 3 4 3 3
8 12 15 17 14 13 16 17 17 17 16 14 11 10 9 7 8 9 10 9 9 9 8 9 9 8 8 8 8 7 7 7 7 7 6 6 6 5 5 5 5 5 4 5
9 9 13 16 17 15 13 17 18 18 16 16 13 9 7 7 7 9 10 9 9 9 9 10 10 9 9 9 8 8 8 8 8 7 7 6 6 6 6 5 6 6 5 6
9 9 11 13 16 15 15 15 17 15 15 15 12 8 5 6 7 9 9 8 8 9 9 9 10 9 8 8 8 9 8 8 8 7 7 7 6 6 6 6 6 6 6 7
8 7 8 12 12 17 12 12 12 13 13 13 10 8 7 7 6 7 8 8 8 9 10 9 10 10 9 9 9 9 9 9 8 8 7 7 7 7 6 7 6 6 6 6
9 8 9 10 13 13 12 10 10 9 9 10 9 8 6 6 6 5 5 7 9 8 9 8 9 11 10 10 10 9 10 9 9 8 7 8 7 7 7 7 6 5 6 6
11 8 10 10 12 12 11 9 7 6 7 6 6 6 5 7 6 5 6 7 9 9 8 8 10 11 10 9 9 9 9 9 8 8 8 8 7 7 7 7 6 6 5 6
14 13 14 13 12 8 5 7 9 10 5 3 4 5 5 3 2 6 9 9 10 9 9 10 10 10 9 9 9 9 9 8 8 8 8 8 7 7 7 6 5 5 5 6
13 13 13 13 12 8 3 6 5 2 4 3 3 4 5 6 9 11 11 11 10 9 9 10 10 10 9 9 9 9 9 8 8 8 8 8 6 6 6 6 5 5 5 6
10 8 7 6 4 1 5 5 5 5 4 3 4 5 7 9 11 12 11 10 9 9 9 10 11 11 9 8 8 10 9 9 8 8 8 7 6 5 5 5 5 4 3 4
6 4 5 4 4 3 4 4 5 5 4 3 5 7 8 9 13 13 11 9 8 9 9 9 11 11 9 8 8 9 9 9 8 8 7 6 6 6 5 4 3 3 2 3
3 3 4 3 4 4 4 3 4 5 4 3 5 7 8 10 13 13 11 10 8 8 7 8 9 9 10 9 9 9 9 8 9 8 6 6 7 8 7 7 6 6 6 4
3 2 2 2 2 2 4 3 5 5 4 3 6 8 8 10 12 13 11 9 9 8 8 8 9 9 9 10 9 8 8 8 8 7 6 5 6 6 7 7 7 12 10 12
Wind_Direction
217 229 231 221 217 235 244 235 214 186 162 170 160 165 172 167 171 164 167 170 172 168 166 163 168 168 162 159 159 162 169 159 165 175 181 185 177 191 190 185 162 167 195 188
218 227 237 238 230 238 247 251 234 191 165 188 173 175 178 170 184 172 169 174 172 169 166 165 168 168 165 164 162 167 176 170 181 181 182 179 179 211 207 185 149 177 194 196
227 225 225 235 236 235 239 242 241 229 201 200 210 199 181 188 200 182 178 175 174 172 171 170 173 174 174 173 174 178 178 176 189 181 179 187 174 209 217 177 167 195 194 196
236 238 232 229 234 236 236 239 248 246 239 223 217 220 194 189 198 197 187 177 177 175 174 173 176 176 177 175 176 171 172 176 182 183 195 198 196 202 203 193 168 189 201 204
230 231 231 231 232 235 247 245 248 253 249 256 237 228 212 187 197 196 189 183 179 175 176 176 176 174 178 179 177 171 168 172 175 188 195 204 210 201 196 187 176 193 187 199
244 230 228 233 238 236 241 245 243 249 251 246 244 240 207 192 195 192 183 181 180 175 173 170 170 168 175 178 176 172 167 171 176 188 192 195 210 211 198 199 188 205 197 198
234 234 220 226 233 226 224 229 226 228 232 243 246 241 196 177 173 182 180 175 171 169 168 165 165 167 169 170 169 164 161 169 175 182 190 191 199 207 206 214 212 220 205 183
218 223 216 214 227 225 219 228 231 233 233 234 226 229 191 168 160 162 159 160 162 163 162 160 162 162 166 166 161 156 155 163 171 179 183 184 184 196 199 208 219 206 222 213
221 222 212 212 222 231 221 231 241 246 253 251 229 213 185 168 160 156 160 157 155 155 156 158 159 161 164 163 160 159 154 159 169 174 171 170 171 184 196 181 185 223 252 249
257 243 212 199 215 232 238 229 239 248 255 258 225 211 206 179 170 165 162 153 155 151 159 154 154 153 152 151 150 152 153 158 164 165 169 164 163 163 151 100 98 272 314 336
242 252 224 200 208 220 226 233 235 247 254 257 252 226 192 172 171 167 162 155 154 158 156 150 145 139 137 142 146 148 148 150 152 155 158 153 147 144 132 126 126 88 334 345
231 246 241 214 207 227 229 232 231 235 246 262 266 234 141 152 160 160 154 144 143 147 146 140 135 131 135 138 142 144 146 146 144 144 140 136 130 131 130 125 112 95 72 64
224 243 244 220 205 211 233 229 234 237 240 248 253 203 153 144 153 153 145 135 129 133 131 127 125 127 129 132 132 134 137 137 137 137 136 130 128 124 120 107 91 77 69 63
241 237 247 237 214 201 220 234 230 233 232 235 237 205 177 157 154 148 136 131 135 133 127 123 120 120 120 122 124 127 129 130 128 127 129 124 118 110 102 92 85 80 73 66
236 234 244 260 259 226 213 225 231 232 236 240 231 211 195 171 159 144 136 142 142 136 135 130 128 125 124 123 122 125 126 124 125 124 120 114 109 100 96 91 85 78 73 75
227 249 243 250 258 258 232 220 228 230 234 237 242 235 197 164 153 142 146 155 153 149 146 140 135 133 133 132 132 129 124 123 121 120 118 113 110 103 99 94 86 83 78 76
214 237 247 241 243 252 242 232 226 227 233 237 233 226 180 174 157 148 149 156 156 154 149 146 143 140 137 136 133 133 129 126 123 120 117 116 113 111 109 103 95 92 87 81
222 230 244 248 238 238 240 235 233 231 232 233 225 208 187 169 152 156 160 159 155 151 145 150 144 139 138 135 133 132 130 128 126 124 120 117 114 111 105 100 97 95 93 88
214 220 238 243 238 233 235 231 225 227 228 225 212 205 193 160 149 147 131 136 138 134 133 140 138 138 136 136 136 133 131 130 126 121 117 114 115 114 110 107 103 100 97 93
205 213 235 240 244 234 225 220 219 228 224 220 207 184 180 186 192 156 133 129 124 121 125 133 137 135 133 133 132 131 128 126 123 121 116 114 113 111 109 107 103 99 100 101
199 205 223 239 242 248 233 200 210 222 199 176 187 169 177 211 118 113 120 118 113 113 118 124 124 124 125 126 128 126 121 118 115 113 111 110 111 110 109 106 104 106 102 100
202 203 215 233 239 231 242 212 199 114 86 111 144 143 126 110 113 111 109 110 116 120 126 126 119 117 118 121 121 118 113 110 110 111 109 107 107 111 112 111 108 109 113 113
214 215 209 220 225 40 57 74 85 95 95 105 120 126 125 125 122 119 116 116 121 124 128 125 122 120 119 120 122 119 115 113 111 110 110 111 108 100 106 115 121 129 134 126
214 237 219 184 168 136 98 101 98 89 95 103 129 138 135 137 130 125 124 123 124 124 123 125 127 127 124 122 118 117 120 122 121 121 119 117 114 103 87 77 83 91 89 100
230 215 220 188 154 131 111 114 115 111 112 120 128 127 134 133 129 127 126 127 124 119 121 124 126 129 128 125 123 125 128 129 128 127 124 120 111 103 87 71 50 61 49 47
318 278 216 161 127 148 139 149 117 118 124 120 119 115 120 121 124 124 125 127 125 128 128 126 126 126 126 126 126 128 132 134 135 136 138 134 128 123 119 109 86 54 63 65